When you browse on this site, cookies collect data to enhance your experience and personalize the content and advertising you see.
Visit our Privacy Policy to learn more. By continuing to use the site, you agree to this use of cookies and data.
  • In Netherlands
  • List of Countries
  • For 7 days
  • Water Temperature
  • Weather Map
  • Weather Widgets
  • user-avatar
    Login

    Hourly Weather Armawir

    Today, 6 June, Saturday

    Time Temperature Precipitation Wind Pressure Humidity
    00:00 +18°C° 0.2 mm 3 mps 690 mmHg 52%
    01:00 +17°C° 0 mm 3 mps 690 mmHg 53%
    02:00 +16°C° 0 mm 2 mps 690 mmHg 54%
    03:00 +16°C° 0 mm 2 mps 689 mmHg 54%
    04:00 +17°C° 0 mm 2 mps 690 mmHg 53%
    05:00 +17°C° 0 mm 2 mps 690 mmHg 52%
    06:00 +18°C° 0 mm 3 mps 691 mmHg 51%
    07:00 +20°C° 0 mm 3 mps 691 mmHg 46%
    08:00 +22°C° 0 mm 3 mps 691 mmHg 40%
    09:00 +25°C° 0 mm 3 mps 691 mmHg 34%
    10:00 +26°C° 0 mm 3 mps 691 mmHg 29%
    11:00 +28°C° 0 mm 3 mps 691 mmHg 25%
    12:00 +29°C° 0 mm 3 mps 692 mmHg 20%
    13:00 +30°C° 0 mm 3 mps 691 mmHg 19%
    14:00 +30°C° 0 mm 3 mps 691 mmHg 17%
    15:00 +31°C° 0 mm 3 mps 691 mmHg 15%
    16:00 +30°C° 0 mm 4 mps 691 mmHg 20%
    17:00 +29°C° 0 mm 4 mps 691 mmHg 24%
    18:00 +29°C° 0 mm 4 mps 690 mmHg 29%
    19:00 +26°C° 0 mm 3 mps 690 mmHg 33%
    20:00 +24°C° 0 mm 3 mps 690 mmHg 37%
    21:00 +20°C° 0 mm 2 mps 690 mmHg 41%
    22:00 +19°C° 0 mm 2 mps 690 mmHg 41%
    23:00 +19°C° 0 mm 2 mps 690 mmHg 42%

    Tomorrow, 7 June, Sunday

    Time Temperature Precipitation Wind Pressure Humidity
    00:00 +18°C° 0 mm 2 mps 690 mmHg 42%
    01:00 +17°C° 0 mm 2 mps 690 mmHg 44%
    02:00 +16°C° 0 mm 1 mps 690 mmHg 46%
    03:00 +15°C° 0 mm 1 mps 689 mmHg 48%
    04:00 +16°C° 0 mm 1 mps 690 mmHg 47%
    05:00 +18°C° 0 mm 1 mps 690 mmHg 47%
    06:00 +19°C° 0 mm 1 mps 690 mmHg 46%
    07:00 +21°C° 0 mm 1 mps 690 mmHg 41%
    08:00 +23°C° 0 mm 1 mps 690 mmHg 37%
    09:00 +25°C° 0 mm 1 mps 690 mmHg 32%
    10:00 +26°C° 0 mm 1 mps 690 mmHg 29%
    11:00 +28°C° 0 mm 1 mps 690 mmHg 26%
    12:00 +29°C° 0 mm 2 mps 690 mmHg 23%
    13:00 +30°C° 0 mm 2 mps 690 mmHg 21%
    14:00 +30°C° 0 mm 2 mps 690 mmHg 20%
    15:00 +31°C° 0 mm 2 mps 689 mmHg 18%
    16:00 +31°C° 0 mm 2 mps 689 mmHg 20%
    17:00 +31°C° 0 mm 2 mps 689 mmHg 23%
    18:00 +30°C° 0 mm 1 mps 689 mmHg 25%
    19:00 +27°C° 0 mm 1 mps 689 mmHg 28%
    20:00 +25°C° 0 mm 1 mps 688 mmHg 31%
    21:00 +22°C° 0 mm 1 mps 688 mmHg 34%
    22:00 +21°C° 0 mm 1 mps 688 mmHg 37%
    23:00 +21°C° 0 mm 1 mps 688 mmHg 40%

    Day after tomorrow, 8 June, Monday

    Time Temperature Precipitation Wind Pressure Humidity
    00:00 +20°C° 0 mm 1 mps 688 mmHg 43%
    01:00 +20°C° 0 mm 1 mps 688 mmHg 46%
    02:00 +19°C° 0 mm 1 mps 688 mmHg 50%
    03:00 +18°C° 0 mm 1 mps 687 mmHg 53%
    04:00 +19°C° 0 mm 1 mps 688 mmHg 54%
    05:00 +20°C° 0 mm 1 mps 688 mmHg 55%
    06:00 +21°C° 0 mm 1 mps 688 mmHg 56%
    07:00 +23°C° 0 mm 1 mps 688 mmHg 50%
    08:00 +25°C° 0 mm 1 mps 688 mmHg 44%
    09:00 +26°C° 0 mm 1 mps 688 mmHg 38%
    10:00 +28°C° 0 mm 2 mps 688 mmHg 34%
    11:00 +29°C° 0 mm 2 mps 688 mmHg 30%
    12:00 +31°C° 0 mm 2 mps 688 mmHg 26%
    13:00 +31°C° 0 mm 2 mps 688 mmHg 24%
    14:00 +32°C° 0 mm 2 mps 688 mmHg 21%
    15:00 +34°C° 0 mm 2 mps 687 mmHg 19%
    16:00 +32°C° 0 mm 2 mps 687 mmHg 21%
    17:00 +32°C° 0 mm 2 mps 687 mmHg 23%
    18:00 +32°C° 0 mm 1 mps 687 mmHg 24%
    19:00 +29°C° 0 mm 2 mps 687 mmHg 30%
    20:00 +26°C° 0 mm 2 mps 687 mmHg 36%
    21:00 +22°C° 0 mm 3 mps 687 mmHg 41%
    22:00 +23°C° 0 mm 2 mps 687 mmHg 45%
    23:00 +21°C° 0 mm 2 mps 686 mmHg 48%

    9 June, Tuesday

    Time Temperature Precipitation Wind Pressure Humidity
    00:00 +21°C° 0 mm 1 mps 686 mmHg 52%
    01:00 +20°C° 0 mm 1 mps 686 mmHg 54%
    02:00 +20°C° 0 mm 1 mps 686 mmHg 56%
    03:00 +19°C° 0 mm 1 mps 686 mmHg 59%
    04:00 +20°C° 0 mm 1 mps 686 mmHg 57%
    05:00 +21°C° 0 mm 1 mps 687 mmHg 56%
    06:00 +22°C° 0 mm 1 mps 687 mmHg 55%
    07:00 +24°C° 0 mm 1 mps 687 mmHg 49%
    08:00 +26°C° 0 mm 1 mps 687 mmHg 43%
    09:00 +28°C° 0 mm 1 mps 687 mmHg 38%
    10:00 +29°C° 0 mm 1 mps 688 mmHg 34%
    11:00 +31°C° 0 mm 1 mps 688 mmHg 30%
    12:00 +32°C° 0 mm 2 mps 688 mmHg 26%
    13:00 +34°C° 0 mm 2 mps 688 mmHg 24%
    14:00 +34°C° 0 mm 2 mps 688 mmHg 22%
    15:00 +35°C° 0 mm 2 mps 687 mmHg 21%
    16:00 +33°C° 0.2 mm 3 mps 687 mmHg 28%
    17:00 +29°C° 0.2 mm 4 mps 688 mmHg 34%
    18:00 +27°C° 0.2 mm 6 mps 688 mmHg 41%
    19:00 +25°C° 0.1 mm 5 mps 688 mmHg 45%
    20:00 +23°C° 0.1 mm 4 mps 688 mmHg 49%
    21:00 +21°C° 0.1 mm 4 mps 689 mmHg 53%
    22:00 +20°C° 0 mm 3 mps 689 mmHg 55%
    23:00 +20°C° 0 mm 2 mps 688 mmHg 58%

    10 June, Wednesday

    Time Temperature Precipitation Wind Pressure Humidity
    00:00 +19°C° 0 mm 2 mps 688 mmHg 60%
    01:00 +18°C° 0 mm 2 mps 688 mmHg 61%
    02:00 +18°C° 0 mm 2 mps 687 mmHg 62%
    03:00 +18°C° 0 mm 2 mps 687 mmHg 63%
    04:00 +20°C° 0 mm 1 mps 687 mmHg 61%
    05:00 +20°C° 0 mm 1 mps 688 mmHg 59%
    06:00 +21°C° 0 mm 1 mps 688 mmHg 58%
    07:00 +23°C° 0 mm 1 mps 688 mmHg 52%
    08:00 +25°C° 0 mm 1 mps 688 mmHg 47%
    09:00 +27°C° 0 mm 1 mps 688 mmHg 41%
    10:00 +28°C° 0 mm 2 mps 688 mmHg 38%
    11:00 +30°C° 0 mm 2 mps 688 mmHg 34%
    12:00 +31°C° 0 mm 2 mps 689 mmHg 30%
    13:00 +32°C° 0 mm 2 mps 688 mmHg 28%
    14:00 +34°C° 0 mm 2 mps 688 mmHg 26%
    15:00 +35°C° 0 mm 2 mps 688 mmHg 24%
    16:00 +34°C° 0 mm 2 mps 688 mmHg 26%
    17:00 +34°C° 0 mm 2 mps 688 mmHg 29%
    18:00 +33°C° 0 mm 3 mps 688 mmHg 32%
    19:00 +29°C° 0.1 mm 3 mps 688 mmHg 37%
    20:00 +27°C° 0.1 mm 3 mps 688 mmHg 43%
    21:00 +24°C° 0.1 mm 3 mps 688 mmHg 48%
    22:00 +24°C° 0 mm 2 mps 688 mmHg 49%
    23:00 +23°C° 0 mm 2 mps 688 mmHg 50%

    11 June, Thursday

    Time Temperature Precipitation Wind Pressure Humidity
    00:00 +23°C° 0 mm 2 mps 688 mmHg 51%
    01:00 +21°C° 0 mm 2 mps 688 mmHg 53%
    02:00 +20°C° 0 mm 2 mps 687 mmHg 56%
    03:00 +20°C° 0 mm 1 mps 687 mmHg 58%
    04:00 +21°C° 0 mm 1 mps 687 mmHg 57%
    05:00 +22°C° 0 mm 1 mps 687 mmHg 56%
    06:00 +23°C° 0 mm 1 mps 687 mmHg 56%
    07:00 +24°C° 0 mm 1 mps 687 mmHg 50%
    08:00 +26°C° 0 mm 1 mps 687 mmHg 44%
    09:00 +28°C° 0 mm 1 mps 687 mmHg 38%
    10:00 +29°C° 0 mm 2 mps 687 mmHg 35%
    11:00 +31°C° 0 mm 2 mps 687 mmHg 32%
    12:00 +32°C° 0 mm 2 mps 687 mmHg 29%
    13:00 +34°C° 0 mm 2 mps 687 mmHg 27%
    14:00 +35°C° 0 mm 2 mps 687 mmHg 25%
    15:00 +36°C° 0 mm 2 mps 687 mmHg 24%
    16:00 +33°C° 0.5 mm 3 mps 686 mmHg 32%
    17:00 +29°C° 0.5 mm 4 mps 686 mmHg 40%
    18:00 +26°C° 0.5 mm 5 mps 686 mmHg 48%
    19:00 +25°C° 0.6 mm 4 mps 687 mmHg 54%
    20:00 +22°C° 0.6 mm 3 mps 687 mmHg 59%
    21:00 +21°C° 0.6 mm 3 mps 687 mmHg 64%
    22:00 +20°C° 0 mm 2 mps 687 mmHg 66%
    23:00 +20°C° 0 mm 2 mps 687 mmHg 68%
    Show more